Tracking 19794 objects as of 21-Jul-2019
HD Live streaming from Space Station
objects crossing your sky now

SSA

Track SSA now!
10-day predictions
SSA is classified as:


NORAD ID: 13844
Int'l Code: 1983-008E
Perigee: 386.3 km
Apogee: 1,735.9 km
Inclination: 63.3 °
Period: 106.3 minutes
Semi major axis: 7432 km
RCS: Unknown
Launch date: February 9, 1983
Source: United States (US)
Launch site: AIR FORCE WESTERN TEST RANGE (AFWTR)
aabbcc
Your satellite tracking list
Your tracking list is empty




NASA's NSSDC Master Catalog

Two Line Element Set (TLE):
1 13844U 83008E   19201.92804121  .00000644  00000-0  63676-4 0  9995
2 13844  63.2927 354.1640 0907962  89.2867 281.1959 13.54990091 14772
Source of the keplerian elements: McCants